| time (UTC) | temp C | wind direction | speed KPH | gust KPH | rain 1hr cm | rain 24hr cm | rain mn cm | humidity % | barometer mb |
| 20260831031532 | 17 | 0 | 0.0 | 0.0 | 0.00 | 0.00 | 0.00 | 96 | 985.4 |
| 20260831025426 | 17 | 134 | 3.2 | 3.2 | 0.00 | 0.00 | 0.00 | 96 | 985.5 |
| 20260831024404 | 17 | 197 | 1.6 | 1.6 | 0.00 | 0.00 | 0.00 | 96 | 985.4 |
| 20260831023343 | 17 | 147 | 1.6 | 3.2 | 0.00 | 0.00 | 0.00 | 96 | 985.5 |
| 20260831022842 | 17 | 65 | 3.2 | 3.2 | 0.00 | 0.00 | 0.00 | 96 | 985.5 |
| 20260831022342 | 17 | 169 | 3.2 | 6.4 | 0.00 | 0.00 | 0.00 | 96 | 985.5 |
| 20260831021841 | 17 | 161 | 4.8 | 6.4 | 0.00 | 0.00 | 0.00 | 96 | 985.6 |
| 20260831021341 | 17 | 352 | 1.6 | 3.2 | 0.00 | 0.00 | 0.00 | 96 | 985.6 |
| 20260831020840 | 17 | 127 | 1.6 | 3.2 | 0.00 | 0.00 | 0.00 | 96 | 985.7 |
| 20260831020340 | 17 | 270 | 1.6 | 3.2 | 0.00 | 0.00 | 0.00 | 96 | 985.7 |
| 20260831015839 | 17 | 174 | 6.4 | 6.4 | 0.00 | 0.00 | 0.00 | 96 | 985.8 |
| 20260831015339 | 17 | 89 | 4.8 | 4.8 | 0.00 | 0.00 | 0.00 | 96 | 985.9 |
| 20260831014839 | 17 | 299 | 1.6 | 3.2 | 0.00 | 0.00 | 0.00 | 96 | 985.9 |
| 20260831014339 | 17 | 202 | 4.8 | 8.0 | 0.00 | 0.00 | 0.00 | 96 | 986.0 |
| 20260831013838 | 17 | 237 | 3.2 | 6.4 | 0.00 | 0.00 | 0.00 | 96 | 986.2 |
| 20260831013338 | 17 | 240 | 4.8 | 11.3 | 0.00 | 0.00 | 0.00 | 95 | 986.4 |
| 20260831012837 | 17 | 261 | 3.2 | 6.4 | 0.00 | 0.00 | 0.00 | 95 | 986.5 |
| 20260831012337 | 18 | 311 | 1.6 | 3.2 | 0.00 | 0.00 | 0.00 | 95 | 986.5 |
| 20260831011837 | 18 | 227 | 3.2 | 6.4 | 0.00 | 0.00 | 0.00 | 95 | 986.5 |
| 20260831011337 | 18 | 266 | 4.8 | 11.3 | 0.00 | 0.00 | 0.00 | 96 | 986.8 |
| 20260831010836 | 18 | 261 | 8.0 | 9.7 | 0.00 | 0.00 | 0.00 | 96 | 986.7 |
| 20260831010336 | 18 | 156 | 3.2 | 4.8 | 0.00 | 0.00 | 0.00 | 96 | 986.7 |
| 20260831005314 | 18 | 284 | 1.6 | 3.2 | 0.00 | 0.00 | 0.00 | 96 | 986.3 |
| 20260831003731 | 18 | 217 | 3.2 | 4.8 | 0.00 | 0.00 | 0.00 | 97 | 986.4 |
| 20260831002710 | 18 | 214 | 3.2 | 6.4 | 0.00 | 0.00 | 0.00 | 97 | 986.4 |
| 20260831002210 | 18 | 249 | 3.2 | 4.8 | 0.00 | 0.00 | 0.00 | 97 | 986.5 |
| 20260831001709 | 18 | 250 | 3.2 | 6.4 | 0.00 | 0.00 | 0.00 | 97 | 986.6 |
| 20260831001209 | 18 | 216 | 3.2 | 4.8 | 0.00 | 0.00 | 0.00 | 97 | 986.6 |
| 20260831000709 | 18 | 0 | 0.0 | 0.0 | 0.00 | 0.00 | 0.00 | 96 | 986.8 |
| 20260831000211 | 18 | 252 | 3.2 | 4.8 | 0.00 | 0.00 | 0.00 | 96 | 986.8 |
| 20260830235708 | 18 | 265 | 3.2 | 6.4 | 0.00 | 0.00 | 0.00 | 96 | 986.7 |
| 20260830235208 | 18 | 280 | 1.6 | 3.2 | 0.00 | 0.00 | 0.00 | 96 | 986.7 |
| 20260830234708 | 18 | 162 | 1.6 | 3.2 | 0.00 | 0.00 | 0.00 | 96 | 986.7 |
| 20260830234208 | 18 | 250 | 1.6 | 4.8 | 0.00 | 0.00 | 0.00 | 96 | 986.9 |
| 20260830233708 | 18 | 278 | 1.6 | 3.2 | 0.00 | 0.00 | 0.00 | 96 | 987.0 |
| 20260830233207 | 18 | 340 | 1.6 | 3.2 | 0.00 | 0.00 | 0.00 | 96 | 986.9 |
| 20260830232707 | 18 | 258 | 3.2 | 6.4 | 0.00 | 0.00 | 0.00 | 96 | 986.9 |
| 20260830232207 | 18 | 246 | 3.2 | 6.4 | 0.00 | 0.00 | 0.00 | 96 | 986.9 |
| 20260830231707 | 18 | 252 | 4.8 | 8.0 | 0.00 | 0.00 | 0.00 | 96 | 987.0 |
| 20260830231206 | 18 | 208 | 1.6 | 3.2 | 0.00 | 0.00 | 0.00 | 96 | 986.9 |
| 20260830230706 | 18 | 220 | 1.6 | 3.2 | 0.00 | 0.00 | 0.00 | 96 | 986.9 |
| 20260830230205 | 18 | 261 | 4.8 | 8.0 | 0.00 | 0.00 | 0.00 | 96 | 986.8 |
| 20260830225705 | 18 | 239 | 1.6 | 4.8 | 0.00 | 0.00 | 0.00 | 96 | 986.8 |
| 20260830225204 | 18 | 185 | 0.0 | 1.6 | 0.00 | 0.00 | 0.00 | 96 | 986.6 |
| 20260830224142 | 18 | 242 | 3.2 | 4.8 | 0.00 | 0.00 | 0.00 | 96 | 986.6 |
| 20260830223642 | 18 | 285 | 3.2 | 4.8 | 0.00 | 0.00 | 0.00 | 96 | 986.3 |
| 20260830223142 | 19 | 255 | 3.2 | 4.8 | 0.00 | 0.00 | 0.00 | 96 | 986.2 |
| 20260830222642 | 19 | 179 | 3.2 | 4.8 | 0.00 | 0.00 | 0.00 | 96 | 986.2 |
| 20260830222141 | 19 | 259 | 1.6 | 3.2 | 0.00 | 0.00 | 0.00 | 96 | 986.1 |
| 20260830221641 | 19 | 155 | 1.6 | 3.2 | 0.00 | 0.00 | 0.00 | 96 | 986.0 |
| 20260830221141 | 19 | 281 | 1.6 | 1.6 | 0.00 | 0.00 | 0.00 | 96 | 985.9 |
| 20260830220641 | 19 | 260 | 1.6 | 4.8 | 0.00 | 0.00 | 0.00 | 96 | 985.9 |
| 20260830220141 | 19 | 0 | 0.0 | 0.0 | 0.00 | 0.00 | 0.00 | 96 | 985.7 |
| 20260830215641 | 19 | 165 | 3.2 | 4.8 | 0.00 | 0.00 | 0.00 | 96 | 985.6 |
| 20260830215140 | 19 | 160 | 3.2 | 4.8 | 0.00 | 0.00 | 0.00 | 96 | 985.7 |
| 20260830214640 | 19 | 165 | 1.6 | 3.2 | 0.00 | 0.00 | 0.00 | 96 | 985.8 |
| 20260830214140 | 19 | 181 | 1.6 | 3.2 | 0.00 | 0.00 | 0.00 | 96 | 985.9 |
| 20260830213639 | 19 | 62 | 1.6 | 1.6 | 0.00 | 0.00 | 0.00 | 96 | 985.9 |
| 20260830213139 | 19 | 0 | 0.0 | 0.0 | 0.00 | 0.00 | 0.00 | 96 | 985.9 |
| 20260830212639 | 18 | 279 | 1.6 | 3.2 | 0.00 | 0.00 | 0.00 | 96 | 985.9 |
| 20260830212139 | 18 | 244 | 3.2 | 4.8 | 0.00 | 0.00 | 0.00 | 96 | 985.9 |
| 20260830211639 | 18 | 188 | 1.6 | 3.2 | 0.00 | 0.00 | 0.00 | 96 | 986.1 |
| 20260830211138 | 18 | 0 | 0.0 | 0.0 | 0.00 | 0.00 | 0.00 | 96 | 986.0 |
| 20260830210116 | 18 | 148 | 3.2 | 4.8 | 0.00 | 0.00 | 0.00 | 96 | 986.1 |
| 20260830205616 | 18 | 155 | 3.2 | 6.4 | 0.00 | 0.00 | 0.00 | 96 | 986.0 |
| 20260830205115 | 18 | 160 | 3.2 | 6.4 | 0.00 | 0.00 | 0.00 | 96 | 986.1 |
| 20260830204615 | 18 | 240 | 3.2 | 6.4 | 0.00 | 0.00 | 0.00 | 96 | 986.1 |
| 20260830203553 | 18 | 180 | 1.6 | 3.2 | 0.00 | 0.00 | 0.00 | 96 | 986.1 |
| 20260830203053 | 18 | 245 | 1.6 | 3.2 | 0.00 | 0.00 | 0.00 | 96 | 986.1 |
| 20260830202032 | 18 | 261 | 3.2 | 4.8 | 0.00 | 0.00 | 0.00 | 96 | 986.2 |
| 20260830201010 | 18 | 76 | 1.6 | 4.8 | 0.00 | 0.00 | 0.00 | 96 | 986.0 |
| 20260830200510 | 17 | 154 | 3.2 | 6.4 | 0.00 | 0.00 | 0.00 | 96 | 986.2 |
| 20260830200010 | 17 | 207 | 1.6 | 1.6 | 0.00 | 0.00 | 0.00 | 96 | 986.3 |
| 20260830194948 | 17 | 154 | 4.8 | 6.4 | 0.00 | 0.00 | 0.00 | 97 | 986.2 |
| 20260830194448 | 17 | 158 | 4.8 | 6.4 | 0.00 | 0.00 | 0.00 | 96 | 986.2 |
| 20260830193948 | 17 | 158 | 1.6 | 4.8 | 0.00 | 0.00 | 0.00 | 96 | 986.4 |
| 20260830193448 | 17 | 349 | 3.2 | 4.8 | 0.00 | 0.00 | 0.00 | 96 | 986.5 |
| 20260830192947 | 17 | 152 | 3.2 | 3.2 | 0.00 | 0.00 | 0.00 | 96 | 986.4 |
| 20260830192447 | 17 | 150 | 3.2 | 4.8 | 0.00 | 0.00 | 0.00 | 96 | 986.6 |
| 20260830191426 | 17 | 44 | 1.6 | 3.2 | 0.00 | 0.00 | 0.00 | 95 | 986.7 |
| 20260830190925 | 17 | 90 | 3.2 | 4.8 | 0.00 | 0.00 | 0.00 | 95 | 986.7 |
| 20260830190425 | 17 | 107 | 4.8 | 4.8 | 0.00 | 0.00 | 0.00 | 95 | 986.7 |
| 20260830185925 | 17 | 125 | 1.6 | 1.6 | 0.00 | 0.00 | 0.00 | 95 | 986.7 |
| 20260830184903 | 17 | 151 | 3.2 | 4.8 | 0.00 | 0.00 | 0.00 | 95 | 986.7 |
| 20260830183841 | 17 | 131 | 1.6 | 4.8 | 0.00 | 0.00 | 0.00 | 95 | 986.8 |
| 20260830183341 | 17 | 0 | 0.0 | 0.0 | 0.00 | 0.00 | 0.00 | 94 | 986.9 |
| 20260830182841 | 17 | 139 | 1.6 | 3.2 | 0.00 | 0.00 | 0.00 | 94 | 986.9 |
| 20260830182341 | 18 | 151 | 1.6 | 3.2 | 0.00 | 0.00 | 0.00 | 94 | 986.9 |
| 20260830181840 | 18 | 158 | 1.6 | 3.2 | 0.00 | 0.00 | 0.00 | 95 | 987.0 |
| 20260830181340 | 18 | 252 | 1.6 | 3.2 | 0.00 | 0.00 | 0.00 | 94 | 987.0 |
| 20260830180839 | 18 | 198 | 3.2 | 6.4 | 0.00 | 0.00 | 0.00 | 94 | 986.9 |
| 20260830180339 | 18 | 154 | 3.2 | 3.2 | 0.00 | 0.00 | 0.00 | 94 | 987.0 |
| 20260830175839 | 18 | 0 | 0.0 | 0.0 | 0.00 | 0.00 | 0.00 | 94 | 987.1 |
| 20260830174256 | 18 | 0 | 0.0 | 0.0 | 0.00 | 0.00 | 0.00 | 94 | 987.1 |
| 20260830173756 | 18 | 0 | 0.0 | 0.0 | 0.00 | 0.00 | 0.00 | 95 | 987.0 |
| 20260830173256 | 18 | 245 | 3.2 | 4.8 | 0.00 | 0.00 | 0.00 | 95 | 987.0 |
| 20260830172756 | 18 | 241 | 1.6 | 3.2 | 0.00 | 0.00 | 0.00 | 94 | 987.1 |
| 20260830172255 | 18 | 0 | 0.0 | 0.0 | 0.00 | 0.00 | 0.00 | 95 | 987.2 |
| 20260830171755 | 18 | 271 | 3.2 | 4.8 | 0.00 | 0.00 | 0.00 | 94 | 987.2 |
| 20260830171255 | 18 | 202 | 3.2 | 4.8 | 0.00 | 0.00 | 0.00 | 94 | 987.4 |
| 20260830170755 | 18 | 273 | 3.2 | 4.8 | 0.00 | 0.00 | 0.00 | 94 | 987.5 |
| 20260830170254 | 18 | 308 | 3.2 | 4.8 | 0.00 | 0.00 | 0.00 | 94 | 987.4 |
| 20260830165754 | 18 | 265 | 3.2 | 6.4 | 0.00 | 0.00 | 0.00 | 94 | 987.2 |
| 20260830165254 | 18 | 0 | 0.0 | 0.0 | 0.00 | 0.00 | 0.00 | 94 | 987.3 |
| 20260830164754 | 19 | 298 | 1.6 | 3.2 | 0.00 | 0.00 | 0.00 | 94 | 987.4 |
| 20260830164254 | 19 | 0 | 0.0 | 0.0 | 0.00 | 0.00 | 0.00 | 94 | 987.6 |
| 20260830163753 | 19 | 265 | 1.6 | 3.2 | 0.00 | 0.00 | 0.00 | 94 | 987.6 |
| 20260830163253 | 19 | 272 | 1.6 | 1.6 | 0.00 | 0.00 | 0.00 | 94 | 987.6 |
| 20260830162753 | 19 | 0 | 0.0 | 0.0 | 0.00 | 0.00 | 0.00 | 94 | 987.6 |
| 20260830160128 | 19 | 152 | 3.2 | 4.8 | 0.00 | 0.00 | 0.00 | 94 | 987.5 |
| 20260830155628 | 18 | 0 | 0.0 | 0.0 | 0.00 | 0.00 | 0.00 | 95 | 987.4 |
| 20260830155127 | 18 | 161 | 1.6 | 3.2 | 0.00 | 0.00 | 0.00 | 95 | 987.5 |
| 20260830154627 | 18 | 173 | 1.6 | 4.8 | 0.00 | 0.00 | 0.00 | 94 | 987.5 |
| 20260830154127 | 18 | 148 | 1.6 | 3.2 | 0.00 | 0.00 | 0.00 | 95 | 987.3 |
| 20260830153106 | 18 | 127 | 3.2 | 4.8 | 0.00 | 0.00 | 0.00 | 95 | 987.4 |
| 20260830152606 | 18 | 161 | 3.2 | 4.8 | 0.00 | 0.00 | 0.00 | 95 | 987.5 |
| 20260830152105 | 18 | 156 | 4.8 | 6.4 | 0.00 | 0.00 | 0.00 | 95 | 987.5 |
| 20260830151605 | 18 | 171 | 1.6 | 4.8 | 0.00 | 0.00 | 0.00 | 95 | 987.5 |
| 20260830151105 | 18 | 161 | 4.8 | 6.4 | 0.00 | 0.00 | 0.00 | 94 | 987.5 |
| 20260830150605 | 18 | 164 | 4.8 | 6.4 | 0.00 | 0.00 | 0.00 | 95 | 987.4 |
| 20260830150104 | 18 | 163 | 3.2 | 6.4 | 0.00 | 0.00 | 0.00 | 95 | 987.5 |
| 20260830145604 | 18 | 146 | 3.2 | 4.8 | 0.00 | 0.00 | 0.00 | 95 | 987.5 |
| 20260830145104 | 18 | 156 | 1.6 | 3.2 | 0.00 | 0.00 | 0.00 | 95 | 987.5 |
| 20260830144042 | 18 | 159 | 1.6 | 3.2 | 0.00 | 0.00 | 0.00 | 95 | 987.4 |
| 20260830143542 | 18 | 162 | 3.2 | 6.4 | 0.00 | 0.00 | 0.00 | 95 | 987.3 |
| 20260830142521 | 18 | 165 | 1.6 | 3.2 | 0.00 | 0.00 | 0.00 | 95 | 987.4 |
| 20260830142021 | 18 | 119 | 3.2 | 4.8 | 0.00 | 0.00 | 0.00 | 95 | 987.4 |
| 20260830140959 | 18 | 146 | 3.2 | 4.8 | 0.00 | 0.00 | 0.00 | 95 | 987.5 |
| 20260830140459 | 18 | 111 | 3.2 | 4.8 | 0.00 | 0.00 | 0.00 | 95 | 987.7 |
| 20260830135959 | 18 | 140 | 3.2 | 4.8 | 0.00 | 0.00 | 0.00 | 95 | 987.7 |
| 20260830135459 | 18 | 0 | 0.0 | 0.0 | 0.00 | 0.00 | 0.00 | 95 | 987.9 |
| 20260830134958 | 18 | 53 | 3.2 | 4.8 | 0.00 | 0.00 | 0.00 | 95 | 987.8 |
| 20260830133937 | 18 | 92 | 3.2 | 4.8 | 0.00 | 0.00 | 0.00 | 95 | 987.7 |
| 20260830133437 | 18 | 99 | 1.6 | 1.6 | 0.00 | 0.00 | 0.00 | 95 | 987.8 |
| 20260830132936 | 18 | 106 | 4.8 | 6.4 | 0.00 | 0.00 | 0.00 | 95 | 987.7 |
| 20260830131915 | 18 | 57 | 3.2 | 4.8 | 0.00 | 0.00 | 0.00 | 94 | 987.5 |
| 20260830131414 | 18 | 101 | 4.8 | 4.8 | 0.00 | 0.00 | 0.00 | 94 | 987.4 |
| 20260830130914 | 18 | 93 | 1.6 | 4.8 | 0.00 | 0.00 | 0.00 | 94 | 987.4 |
| 20260830130413 | 18 | 114 | 1.6 | 3.2 | 0.00 | 0.00 | 0.00 | 94 | 987.4 |
| 20260830125913 | 18 | 46 | 1.6 | 3.2 | 0.00 | 0.00 | 0.00 | 94 | 987.4 |
| 20260830124331 | 18 | 29 | 1.6 | 3.2 | 0.00 | 0.00 | 0.00 | 94 | 987.4 |
| 20260830123830 | 18 | 51 | 3.2 | 6.4 | 0.00 | 0.00 | 0.00 | 94 | 987.3 |
| 20260830123329 | 18 | 66 | 3.2 | 8.0 | 0.00 | 0.00 | 0.00 | 94 | 987.3 |
| 20260830122307 | 18 | 74 | 1.6 | 3.2 | 0.00 | 0.00 | 0.00 | 94 | 987.0 |
| 20260830121807 | 18 | 32 | 3.2 | 9.7 | 0.00 | 0.00 | 0.00 | 94 | 986.9 |
| 20260830121306 | 18 | 109 | 3.2 | 8.0 | 0.00 | 0.00 | 0.00 | 94 | 986.9 |
| 20260830120806 | 18 | 0 | 0.0 | 0.0 | 0.00 | 0.00 | 0.00 | 94 | 986.8 |
| 20260830120306 | 19 | 132 | 1.6 | 3.2 | 0.00 | 0.00 | 0.00 | 94 | 986.7 |
| 20260830115806 | 19 | 42 | 3.2 | 6.4 | 0.00 | 0.00 | 0.00 | 93 | 986.8 |
| 20260830115306 | 19 | 42 | 1.6 | 3.2 | 0.00 | 0.00 | 0.00 | 93 | 986.6 |
| 20260830114805 | 19 | 76 | 1.6 | 3.2 | 0.00 | 0.00 | 0.00 | 93 | 986.6 |
| 20260830113744 | 19 | 0 | 0.0 | 0.0 | 0.00 | 0.00 | 0.00 | 93 | 986.7 |
| 20260830113244 | 19 | 84 | 3.2 | 4.8 | 0.00 | 0.00 | 0.00 | 93 | 986.6 |
| 20260830112744 | 19 | 117 | 3.2 | 4.8 | 0.00 | 0.00 | 0.00 | 93 | 986.7 |
| 20260830112243 | 19 | 64 | 1.6 | 4.8 | 0.00 | 0.00 | 0.00 | 93 | 986.6 |
| 20260830111742 | 19 | 344 | 1.6 | 3.2 | 0.00 | 0.00 | 0.00 | 93 | 986.7 |
| 20260830111242 | 19 | 343 | 1.6 | 3.2 | 0.00 | 0.00 | 0.00 | 93 | 986.6 |
| 20260830110742 | 19 | 357 | 3.2 | 4.8 | 0.00 | 0.00 | 0.00 | 93 | 986.6 |
| 20260830110242 | 19 | 0 | 0.0 | 0.0 | 0.00 | 0.00 | 0.00 | 93 | 986.5 |
| 20260830105742 | 19 | 0 | 0.0 | 0.0 | 0.00 | 0.00 | 0.00 | 93 | 986.5 |
| 20260830105241 | 19 | 31 | 1.6 | 3.2 | 0.00 | 0.00 | 0.00 | 93 | 986.5 |
| 20260830104220 | 19 | 307 | 1.6 | 3.2 | 0.00 | 0.00 | 0.00 | 93 | 986.5 |
| 20260830103720 | 19 | 0 | 0.0 | 0.0 | 0.00 | 0.00 | 0.00 | 93 | 986.3 |
| 20260830103220 | 19 | 0 | 0.0 | 0.0 | 0.00 | 0.00 | 0.00 | 93 | 986.4 |
| 20260830102719 | 19 | 44 | 1.6 | 3.2 | 0.00 | 0.00 | 0.00 | 93 | 986.4 |
| 20260830102219 | 19 | 76 | 3.2 | 3.2 | 0.00 | 0.00 | 0.00 | 93 | 986.6 |
| 20260830101719 | 20 | 303 | 1.6 | 3.2 | 0.00 | 0.00 | 0.00 | 93 | 986.7 |
| 20260830101219 | 20 | 353 | 3.2 | 4.8 | 0.00 | 0.00 | 0.00 | 93 | 986.8 |
| 20260830100718 | 20 | 329 | 3.2 | 4.8 | 0.00 | 0.00 | 0.00 | 93 | 986.8 |
| 20260830095657 | 20 | 10 | 3.2 | 4.8 | 0.00 | 0.00 | 0.00 | 93 | 986.7 |
| 20260830095157 | 20 | 0 | 0.0 | 0.0 | 0.00 | 0.00 | 0.00 | 93 | 986.7 |
| 20260830094135 | 19 | 0 | 0.0 | 0.0 | 0.00 | 0.00 | 0.00 | 94 | 986.6 |
| 20260830093635 | 19 | 0 | 0.0 | 0.0 | 0.00 | 0.00 | 0.00 | 94 | 986.6 |
| 20260830093135 | 19 | 0 | 0.0 | 0.0 | 0.00 | 0.00 | 0.00 | 94 | 986.6 |
| 20260830092634 | 19 | 0 | 0.0 | 0.0 | 0.00 | 0.00 | 0.00 | 94 | 986.6 |
| 20260830092134 | 19 | 0 | 0.0 | 0.0 | 0.00 | 0.00 | 0.00 | 94 | 986.6 |
| 20260830091633 | 19 | 0 | 0.0 | 0.0 | 0.00 | 0.00 | 0.00 | 94 | 986.6 |
| 20260830091133 | 19 | 0 | 0.0 | 0.0 | 0.00 | 0.00 | 0.00 | 94 | 986.6 |
| 20260830085550 | 19 | 0 | 0.0 | 0.0 | 0.00 | 0.00 | 0.00 | 93 | 986.5 |
| 20260830085050 | 19 | 0 | 0.0 | 0.0 | 0.00 | 0.00 | 0.00 | 93 | 986.4 |
| 20260830084550 | 19 | 0 | 0.0 | 0.0 | 0.00 | 0.00 | 0.00 | 93 | 986.4 |
| 20260830084050 | 19 | 0 | 0.0 | 0.0 | 0.00 | 0.00 | 0.00 | 93 | 986.4 |
| 20260830083550 | 19 | 0 | 0.0 | 0.0 | 0.00 | 0.00 | 0.00 | 94 | 986.4 |
| 20260830083049 | 19 | 0 | 0.0 | 0.0 | 0.00 | 0.00 | 0.00 | 94 | 986.3 |
| 20260830082549 | 19 | 0 | 0.0 | 0.0 | 0.00 | 0.00 | 0.00 | 94 | 986.3 |
| 20260830082049 | 19 | 0 | 0.0 | 0.0 | 0.00 | 0.00 | 0.00 | 93 | 986.4 |
| 20260830080506 | 19 | 131 | 1.6 | 3.2 | 0.00 | 0.00 | 0.00 | 93 | 986.3 |
| 20260830080006 | 19 | 0 | 0.0 | 0.0 | 0.00 | 0.00 | 0.00 | 93 | 986.4 |
| 20260830075506 | 19 | 137 | 1.6 | 3.2 | 0.00 | 0.00 | 0.00 | 93 | 986.5 |
| 20260830074506 | 19 | 0 | 0.0 | 0.0 | 0.00 | 0.00 | 0.00 | 93 | 986.5 |
| 20260830074005 | 19 | 0 | 0.0 | 0.0 | 0.00 | 0.00 | 0.00 | 93 | 986.5 |
| 20260830073505 | 19 | 0 | 0.0 | 0.0 | 0.00 | 0.00 | 0.00 | 93 | 986.5 |
| 20260830073005 | 19 | 0 | 0.0 | 0.0 | 0.00 | 0.00 | 0.00 | 93 | 986.5 |
| 20260830072505 | 19 | 0 | 0.0 | 0.0 | 0.00 | 0.00 | 0.00 | 93 | 986.5 |
| 20260830072005 | 19 | 145 | 1.6 | 3.2 | 0.00 | 0.00 | 0.00 | 93 | 986.5 |
| 20260830071504 | 19 | 0 | 0.0 | 0.0 | 0.00 | 0.00 | 0.00 | 93 | 986.5 |
| 20260830071004 | 19 | 152 | 3.2 | 3.2 | 0.00 | 0.00 | 0.00 | 93 | 986.6 |
| 20260830065943 | 19 | 0 | 0.0 | 0.0 | 0.00 | 0.00 | 0.00 | 92 | 986.7 |
| 20260830065442 | 19 | 0 | 0.0 | 0.0 | 0.00 | 0.00 | 0.00 | 92 | 986.7 |
| 20260830064942 | 20 | 167 | 1.6 | 3.2 | 0.00 | 0.00 | 0.00 | 92 | 986.9 |
| 20260830064442 | 20 | 0 | 0.0 | 0.0 | 0.00 | 0.00 | 0.00 | 92 | 986.9 |
| 20260830063942 | 20 | 0 | 0.0 | 0.0 | 0.00 | 0.00 | 0.00 | 92 | 986.9 |
| 20260830063441 | 20 | 165 | 3.2 | 3.2 | 0.00 | 0.00 | 0.00 | 92 | 986.9 |
| 20260830062941 | 20 | 253 | 3.2 | 4.8 | 0.00 | 0.00 | 0.00 | 92 | 987.0 |
| 20260830062441 | 20 | 0 | 0.0 | 0.0 | 0.00 | 0.00 | 0.00 | 92 | 987.0 |
| 20260830061419 | 19 | 243 | 1.6 | 3.2 | 0.00 | 0.00 | 0.00 | 92 | 987.1 |
| 20260830060358 | 19 | 0 | 0.0 | 0.0 | 0.00 | 0.00 | 0.00 | 92 | 987.1 |
| 20260830055858 | 19 | 0 | 0.0 | 0.0 | 0.00 | 0.00 | 0.00 | 92 | 987.1 |
| 20260830055358 | 19 | 0 | 0.0 | 0.0 | 0.00 | 0.00 | 0.00 | 92 | 987.1 |
| 20260830054857 | 19 | 0 | 0.0 | 0.0 | 0.00 | 0.00 | 0.00 | 92 | 987.1 |
| 20260830054357 | 19 | 0 | 0.0 | 0.0 | 0.00 | 0.00 | 0.00 | 92 | 987.1 |
| 20260830053857 | 19 | 0 | 0.0 | 0.0 | 0.00 | 0.00 | 0.00 | 92 | 987.2 |
| 20260830053356 | 19 | 0 | 0.0 | 0.0 | 0.00 | 0.00 | 0.00 | 92 | 987.2 |
| 20260830052856 | 19 | 162 | 1.6 | 3.2 | 0.00 | 0.00 | 0.00 | 91 | 987.1 |
| 20260830052355 | 19 | 0 | 0.0 | 0.0 | 0.00 | 0.00 | 0.00 | 91 | 987.2 |
| 20260830051855 | 19 | 0 | 0.0 | 0.0 | 0.00 | 0.00 | 0.00 | 91 | 987.2 |
| 20260830051355 | 19 | 138 | 1.6 | 1.6 | 0.00 | 0.00 | 0.00 | 91 | 987.2 |
| 20260830050333 | 19 | 170 | 1.6 | 3.2 | 0.00 | 0.00 | 0.00 | 91 | 987.2 |
| 20260830045833 | 19 | 0 | 0.0 | 0.0 | 0.00 | 0.00 | 0.00 | 91 | 987.1 |
| 20260830045333 | 19 | 0 | 0.0 | 0.0 | 0.00 | 0.00 | 0.00 | 91 | 987.1 |
| 20260830044833 | 19 | 148 | 1.6 | 3.2 | 0.00 | 0.00 | 0.00 | 91 | 987.0 |
| 20260830044333 | 19 | 318 | 1.6 | 3.2 | 0.00 | 0.00 | 0.00 | 91 | 987.1 |
| 20260830043311 | 19 | 249 | 1.6 | 3.2 | 0.00 | 0.00 | 0.00 | 91 | 987.0 |
| 20260830042250 | 19 | 0 | 0.0 | 0.0 | 0.00 | 0.00 | 0.00 | 90 | 987.1 |
| 20260830041749 | 19 | 0 | 0.0 | 0.0 | 0.00 | 0.00 | 0.00 | 90 | 987.1 |
| 20260830041249 | 19 | 0 | 0.0 | 0.0 | 0.00 | 0.00 | 0.00 | 90 | 987.1 |
| 20260830040749 | 19 | 241 | 1.6 | 3.2 | 0.00 | 0.00 | 0.00 | 90 | 987.1 |
| 20260830040249 | 19 | 42 | 1.6 | 3.2 | 0.00 | 0.00 | 0.00 | 90 | 987.0 |
| 20260830035748 | 19 | 171 | 1.6 | 3.2 | 0.00 | 0.00 | 0.00 | 90 | 987.0 |
| 20260830035248 | 19 | 0 | 0.0 | 0.0 | 0.00 | 0.00 | 0.00 | 90 | 987.0 |
| 20260830034747 | 19 | 0 | 0.0 | 0.0 | 0.00 | 0.00 | 0.00 | 90 | 987.0 |
| 20260830034247 | 19 | 0 | 0.0 | 0.0 | 0.00 | 0.00 | 0.00 | 91 | 987.0 |
| 20260830033747 | 19 | 223 | 1.6 | 1.6 | 0.00 | 0.00 | 0.00 | 90 | 987.0 |
| 20260830033247 | 19 | 136 | 1.6 | 3.2 | 0.00 | 0.00 | 0.00 | 90 | 986.9 |
| 20260830032747 | 19 | 208 | 1.6 | 3.2 | 0.00 | 0.00 | 0.00 | 90 | 986.9 |